TimeMST,TemperatureF,Dew PointF,Humidity,Sea Level PressureIn,VisibilityMPH,Wind Direction,Wind SpeedMPH,Gust SpeedMPH,PrecipitationIn,Events,Conditions,WindDirDegrees,DateUTC
12:15 AM,23.7,18.3,80,30.04,10.0,Calm,Calm,-,N/A,,Clear,0,2012-12-08 07:15:00
12:35 AM,23.4,18.7,82,30.02,10.0,NNW,4.6,-,N/A,,Clear,330,2012-12-08 07:35:00
12:55 AM,25.7,20.5,81,30.02,10.0,NW,8.1,-,N/A,,Clear,310,2012-12-08 07:55:00
1:15 AM,25.2,20.1,81,30.02,10.0,NW,6.9,-,N/A,,Clear,310,2012-12-08 08:15:00
1:35 AM,22.8,18.1,82,30.02,10.0,Calm,Calm,-,N/A,,Clear,0,2012-12-08 08:35:00
1:55 AM,20.1,16.0,84,30.02,10.0,North,6.9,-,N/A,,Clear,360,2012-12-08 08:55:00
2:15 AM,20.8,16.7,84,30.01,10.0,NW,5.8,-,N/A,,Clear,320,2012-12-08 09:15:00
2:35 AM,20.1,16.7,87,30.01,10.0,WNW,5.8,-,N/A,,Clear,300,2012-12-08 09:35:00
2:55 AM,21.6,18.0,86,30.01,10.0,NW,5.8,-,N/A,,Clear,310,2012-12-08 09:55:00
3:15 AM,21.2,17.4,85,30.01,10.0,NNW,5.8,-,N/A,,Clear,340,2012-12-08 10:15:00
3:35 AM,19.9,16.7,87,30.01,10.0,WNW,5.8,-,N/A,,Clear,300,2012-12-08 10:35:00
4:15 AM,18.7,15.3,87,30.00,10.0,WNW,4.6,-,N/A,,Clear,300,2012-12-08 11:15:00
4:35 AM,17.1,13.1,84,30.00,10.0,Calm,Calm,-,N/A,,Clear,0,2012-12-08 11:35:00
5:15 AM,16.7,14.4,91,30.00,10.0,WNW,5.8,-,N/A,,Clear,300,2012-12-08 12:15:00
5:35 AM,18.7,15.6,88,30.00,10.0,WNW,5.8,-,N/A,,Clear,300,2012-12-08 12:35:00
5:55 AM,18.1,14.9,87,30.00,10.0,WNW,4.6,-,N/A,,Clear,290,2012-12-08 12:55:00
6:15 AM,19.2,16.3,89,30.01,10.0,NW,5.8,-,N/A,,Clear,320,2012-12-08 13:15:00
6:35 AM,17.2,14.4,88,30.02,10.0,NW,4.6,-,N/A,,Clear,320,2012-12-08 13:35:00
6:55 AM,17.2,14.7,90,30.02,10.0,NW,5.8,-,N/A,,Clear,310,2012-12-08 13:55:00
7:15 AM,18.0,15.1,88,30.02,10.0,NW,8.1,-,N/A,,Clear,310,2012-12-08 14:15:00
7:35 AM,17.6,14.7,88,30.02,10.0,NNW,4.6,-,N/A,,Clear,340,2012-12-08 14:35:00
7:55 AM,20.1,16.0,84,30.02,10.0,NNW,3.5,-,N/A,,Clear,340,2012-12-08 14:55:00
8:15 AM,22.3,17.2,81,30.02,10.0,NNW,3.5,-,N/A,,Clear,330,2012-12-08 15:15:00
8:35 AM,24.3,17.6,76,30.02,10.0,Calm,Calm,-,N/A,,Clear,0,2012-12-08 15:35:00
8:55 AM,27.3,18.9,70,30.02,10.0,NW,4.6,-,N/A,,Clear,320,2012-12-08 15:55:00
9:15 AM,30.2,19.9,66,30.02,10.0,NNW,3.5,-,N/A,,Clear,340,2012-12-08 16:15:00
9:35 AM,32.9,22.1,65,30.02,10.0,Calm,Calm,-,N/A,,Clear,0,2012-12-08 16:35:00
9:55 AM,36.1,23.9,61,30.02,10.0,Calm,Calm,-,N/A,,Clear,0,2012-12-08 16:55:00
10:15 AM,42.3,25.5,52,30.01,10.0,ESE,5.8,-,N/A,,Clear,120,2012-12-08 17:15:00
10:35 AM,47.1,26.6,45,30.00,10.0,SE,5.8,-,N/A,,Clear,140,2012-12-08 17:35:00
10:55 AM,52.5,24.4,34,29.99,10.0,WNW,15.0,23.0,N/A,,Clear,290,2012-12-08 17:55:00
11:15 AM,53.1,23.9,32,29.98,10.0,West,17.3,20.7,N/A,,Clear,270,2012-12-08 18:15:00
11:35 AM,52.5,22.5,31,29.97,10.0,West,18.4,24.2,N/A,,Clear,270,2012-12-08 18:35:00
11:55 AM,53.4,22.5,30,29.96,10.0,West,16.1,23.0,N/A,,Clear,270,2012-12-08 18:55:00
12:15 PM,53.2,22.8,31,29.94,10.0,West,15.0,23.0,N/A,,Clear,260,2012-12-08 19:15:00
12:35 PM,54.9,19.2,25,29.93,10.0,West,18.4,26.5,N/A,,Clear,280,2012-12-08 19:35:00
12:55 PM,56.3,19.4,24,29.92,10.0,West,15.0,21.9,N/A,,Clear,280,2012-12-08 19:55:00
1:15 PM,55.9,18.1,23,29.92,10.0,West,12.7,-,N/A,,Clear,260,2012-12-08 20:15:00
1:35 PM,56.3,18.5,23,29.91,10.0,WNW,15.0,20.7,N/A,,Clear,300,2012-12-08 20:35:00
1:55 PM,56.1,19.8,24,29.91,10.0,WNW,11.5,20.7,N/A,,Clear,300,2012-12-08 20:55:00
2:15 PM,56.3,20.3,25,29.91,10.0,WNW,12.7,20.7,N/A,,Clear,290,2012-12-08 21:15:00
2:35 PM,56.1,18.9,23,29.91,10.0,NW,18.4,21.9,N/A,,Clear,310,2012-12-08 21:35:00
2:55 PM,56.8,18.3,22,29.91,10.0,West,15.0,23.0,N/A,,Clear,270,2012-12-08 21:55:00
3:15 PM,55.9,17.4,22,29.91,10.0,WNW,11.5,18.4,N/A,,Clear,300,2012-12-08 22:15:00
3:35 PM,55.4,15.4,21,29.91,10.0,WNW,11.5,21.9,N/A,,Clear,290,2012-12-08 22:35:00
3:55 PM,54.5,14.9,21,29.92,10.0,WNW,12.7,-,N/A,,Clear,300,2012-12-08 22:55:00
4:15 PM,53.1,13.8,21,29.92,10.0,West,9.2,18.4,N/A,,Clear,260,2012-12-08 23:15:00
4:35 PM,52.0,12.9,21,29.92,10.0,WNW,11.5,20.7,N/A,,Clear,290,2012-12-08 23:35:00
4:55 PM,50.0,12.9,23,29.92,10.0,West,12.7,-,N/A,,Clear,270,2012-12-08 23:55:00
5:15 PM,47.5,13.1,25,29.92,10.0,West,11.5,16.1,N/A,,Clear,260,2012-12-09 00:15:00
5:35 PM,47.3,13.6,26,29.93,10.0,West,10.4,16.1,N/A,,Clear,260,2012-12-09 00:35:00
5:55 PM,47.5,13.1,25,29.93,10.0,West,12.7,19.6,N/A,,Clear,260,2012-12-09 00:55:00
6:15 PM,47.3,12.2,24,29.94,10.0,West,11.5,18.4,N/A,,Clear,270,2012-12-09 01:15:00
6:35 PM,46.9,11.3,24,29.93,10.0,West,12.7,20.7,N/A,,Clear,260,2012-12-09 01:35:00
6:55 PM,46.4,11.3,24,29.94,10.0,West,13.8,19.6,N/A,,Clear,270,2012-12-09 01:55:00
7:15 PM,46.2,9.5,23,29.95,10.0,West,13.8,19.6,N/A,,Clear,270,2012-12-09 02:15:00
7:35 PM,45.7,9.1,23,29.95,10.0,WNW,11.5,-,N/A,,Clear,290,2012-12-09 02:35:00
8:15 PM,45.5,10.4,24,29.94,10.0,NW,8.1,-,N/A,,Clear,310,2012-12-09 03:15:00
8:35 PM,45.9,11.8,25,29.94,10.0,West,11.5,17.3,N/A,,Clear,270,2012-12-09 03:35:00
8:55 PM,43.3,12.4,28,29.94,10.0,West,6.9,-,N/A,,Clear,280,2012-12-09 03:55:00
9:15 PM,45.7,13.3,27,29.95,10.0,NW,5.8,16.1,N/A,,Clear,320,2012-12-09 04:15:00
9:35 PM,39.9,11.1,31,29.96,10.0,SE,8.1,-,N/A,,Clear,140,2012-12-09 04:35:00
9:55 PM,35.4,10.6,36,29.96,10.0,Calm,Calm,-,N/A,,Clear,0,2012-12-09 04:55:00
10:15 PM,31.5,10.4,42,29.96,10.0,SE,4.6,-,N/A,,Clear,140,2012-12-09 05:15:00
10:35 PM,37.0,11.8,35,29.96,10.0,ESE,4.6,-,N/A,,Clear,120,2012-12-09 05:35:00
10:55 PM,32.0,10.4,41,29.96,10.0,Calm,Calm,-,N/A,,Clear,0,2012-12-09 05:55:00
11:15 PM,30.7,10.8,43,29.96,10.0,Calm,Calm,-,N/A,,Clear,0,2012-12-09 06:15:00
11:35 PM,35.1,12.0,39,29.96,10.0,Calm,Calm,-,N/A,,Clear,0,2012-12-09 06:35:00
11:55 PM,32.7,11.8,42,29.95,10.0,WNW,3.5,-,N/A,,Clear,290,2012-12-09 06:55:00